Other Surface Observations
Issued by NWS Tucson, AZ

Home | Current Version | Previous Version | Text Only | Print | Product List | Glossary On
Versions: 1 2 3 4 5 6 7 8 9 10 11 12 13 14 15 16 17 18 19 20 21 22 23 24 25 26 27 28 29 30 31 32 33 34 35 36 37 38 39 40 41 42 43 44 45 46 47 48 49 50
751
SXUS55 KTWC 260015
OSOTWC

WEATHER ROUNDUP FOR SOUTHEAST ARIZONA
NATIONAL WEATHER SERVICE TUCSON AZ
515 PM MST THU MAY 25 2017

AZZ504>506-514-260115-
LOCATION       SKY/WX    TMP DP  RH WIND       PRES   REMARKS
TUCSON         PTSUNNY   93  18   6 SW12G25   29.77S
DAVIS-MONTHAN  CLOUDY    91  16   6 W9G22     29.76S
CHILDRENS PARK N/A      N/A N/A   7 SW9               PIMA CO DEQ
ALVERNON/22ND  N/A       95 N/A N/A W10               PIMA CO DEQ
CHERRY/GLENN   N/A      N/A N/A N/A N/A               PIMA CO DEQ
TANGERINE      N/A       94 N/A N/A SW13              PIMA CO DEQ
CONTL RANCH    N/A       95  18   6 W11               PIMA CO DEQ
GRANT/1ST      N/A       94  17   6 SW13              PIMA CO DEQ
CRAYCROFT/22ND N/A       94  21   7 W10               PIMA CO DEQ
GOLFLINKS/KOLB N/A      N/A N/A N/A N/A               PIMA CO DEQ
AJO/12TH       N/A       95  21   7 SW10              PIMA CO DEQ
FAIRGROUNDS    N/A       92 N/A N/A W15               PIMA CO DEQ
SAGUARO        N/A       94  13   5 W10G18            *SABINO CYN
SAN CARLOS     N/A       93  12   5 SW16G26           *SAN CARLOS
GREEN VALLEY   N/A       93  20   7 SW13              PIMA CO DEQ
HORSE CAMP CYN N/A       87  16   7 W20G35            *ARAVAIPA CYN
RINCON MTNS    N/A       66  14  13 SW7G19            *NR MANNING CAMP
$$

AZZ509>511-260115-
LOCATION       SKY/WX    TMP DP  RH WIND       PRES   REMARKS
SAFFORD        PTSUNNY   92  11   5 W23G36    29.73S
STRAY HORSE    N/A       67   6   9 N/A               *
TRAIL CABIN    N/A       77  11   8 NW10G25           *N OF GRANVILLE
BLACK HILLS    NOT AVBL
DRY LAKE       N/A       72  12  10 W8G18             *NATANES MTNS
NOON CREEK     N/A       83  16   8 W5G18             *PINALENO MTNS
COLUMBINE      N/A       59  14  17 W10G21            *PINALENO MTNS
GUTHRIE        N/A       77  11   8 W17G30            *SW OF GUTHRIE
$$

AZZ502-503-513-260115-
LOCATION       SKY/WX    TMP DP  RH WIND       PRES   REMARKS
NOGALES        PTSUNNY   89  20   8 SW22G31   29.88R
SELLS          N/A       92  22   8 N15G22            *
SASABE         N/A       90  24   9 SW14G24           *ALTAR VLY
HOPKINS        N/A       76  16  10 W10G26            *SANTA RITA MTNS
CARR CYN       N/A       80  23  12 S5G18             *W OF HEREFORD
$$

AZZ507-508-512-260115-
LOCATION       SKY/WX    TMP DP  RH WIND       PRES   REMARKS
SIERRA VISTA   PTSUNNY   86  18   8 W22G31    29.91F
DOUGLAS        MOSUNNY   86  23  10 W20G32    29.88S
EMPIRE MTNS    NOT AVBL
MULESHOE RANCH N/A       85  17   8 W12G29            *PRESERVE
HEADQUARTERS   N/A       82  15   8 W10G24            *CHIRICAHUA MTNS
$$

.............................NOTES.............................
THIS IS AN AUTOMATED COLLECTIVE WITH MINIMAL QUALITY CONTROL.
PIMA CO DEQ SITES HAVE NONSTANDARD WIND SENSOR HEIGHTS.
PIMA CO DEQ SITES DO NOT REPORT WIND GUSTS.
* INDICATES WIND SENSORS LOCATED AT 20 FEET INSTEAD OF 33 FEET.
..............................KEY..............................
SKY/WX - SKY CONDITION/WEATHER
TMP    - TEMPERATURE IN FAHRENHEIT
DP     - DEWPOINT IN FAHRENHEIT
RH     - RELATIVE HUMIDITY IN PERCENT
WIND   - DIRECTION AND SPEED IN MILES PER HOUR (MPH)
VRB    - VARIABLE WIND DIRECTION
PRES   - MEAN SEA LEVEL PRESSURE IN INCHES OF MERCURY
         F - FALLING PRESSURE   R - RISING PRESSURE
         S - STEADY PRESSURE
VSB    - VISIBILITY IN MILES
HX     - HEAT INDEX IN FAHRENHEIT
WCI    - WIND CHILL INDEX IN FAHRENHEIT
N/A    - NOT AVAILABLE
AFB    - AIR FORCE BASE
         DAVIS-MONTHAN IS DAVIS-MONTHAN AIR FORCE BASE
CYN    - CANYON
MTNS   - MOUNTAINS
NCA    - NATIONAL CONSERVATION AREA
NR     - NEAR
VLY    - VALLEY
CONTL  - CONTINENTAL
PIMA CO DEQ - PIMA COUNTY DEPT OF ENVIRONMENTAL QUALITY



USA.gov is the U.S. government's official web portal to all federal, state and local government web resources and services.